Tracking 29892 objects as of 21-Nov-2024
HD Live streaming from Space Station
objects crossing your sky now

OBJECT E

Track OBJECT E now!
10-day predictions


NORAD ID: 55137
Int'l Code: 2023-003E
Perigee: 473.2 km
Apogee: 480.9 km
Inclination: 97.2 °
Period: 94.0 minutes
Semi major axis: 6848 km
RCS: Unknown
Launch date: January 9, 2023
Source: People's Republic of China (PRC)
Launch site: Jiuquan Satellite Launch Center, China (JSC)
Your satellite tracking list
Your tracking list is empty




NASA's NSSDC Master Catalog

Two Line Element Set (TLE):
1 55137U 23003E   24326.19554211  .00016778  00000-0  54500-3 0  9990
2 55137  97.2138  38.7999 0005682  47.4530 312.7191 15.31980088103902
Source of the keplerian elements: AFSPC